Hourly Data Report for October 22, 2015

All times are specified in Local Standard Time (LST). Add 1 hour to adjust for Daylight Saving Time where and when it is observed.

ARVIAT A
NUNAVUT

61°05'38.000" N
94°04'18.000" W
10.40 m
2300427
71174
YEK

Download Data

Hourly Data (October 2015)
Hourly Data Report for October 22, 2015
Temp Definition
°C
Dew Point Temp Definition
°C
Rel Hum Definition
%
Wind Dir Definition
10's deg

Wind Spd Definition
km/h
Visibility Definition
km
Stn Press Definition
kPa
Hmdx Definition


Wind Chill Definition


Weather Definition


TIME
00:00 Legend Double Dagger -1.6 -3.0 90 19 8 16.1 102.09   -5 LegendNANA
01:00 Legend Double Dagger -1.5 -3.1 89 21 9 16.1 102.06   -5 LegendNANA
02:00 Legend Double Dagger -3.1 -4.1 93 23 8 16.1 102.07   -6 LegendNANA
03:00 Legend Double Dagger -4.6 -5.1 96 25 13 16.1 102.08   -10 LegendNANA
04:00 Legend Double Dagger -5.2 -5.3 99 23 5 16.1 102.07   -7 LegendNANA
05:00 Legend Double Dagger -6.1 -6.1 100 22 8 16.1 102.05   -10 LegendNANA
06:00 Legend Double Dagger -5.3 -5.3 100 18 8 16.1 102.00   -9 LegendNANA
07:00 Legend Double Dagger -4.6 -4.6 100 20 13 16.1 101.99   -10 LegendNANA
08:00 Legend Double Dagger -5.6 -5.7 99 17 13 16.1 101.96   -11 LegendNANA
09:00 Legend Double Dagger -1.8 -3.0 91 19 21 16.1 101.91   -8 LegendNANA
10:00 Legend Double Dagger -1.4 -2.7 91 19 22 16.1 101.89   -7 LegendNANA
11:00 Legend Double Dagger -1.0 -2.1 92 20 28 16.1 101.83   -8 LegendNANA
12:00 Legend Double Dagger -1.5 -2.3 94 21 41 16.1 101.74   -9 LegendNANA
13:00 Legend Double Dagger -3.3 -3.7 97 20 37 16.1 101.68   -12 LegendNANA
14:00 Legend Double Dagger -3.0 -3.3 98 22 24 4.0 101.64   -10 Snow
15:00 Legend Double Dagger -2.0 -2.3 98 21 26 12.9 101.53   -9 Snow
16:00 Legend Double Dagger -2.2 -2.6 97 21 24 9.7 101.45   -9 Snow
17:00 Legend Double Dagger -2.0 -2.3 98 20 24 1.6 101.33   -8 Snow
18:00 Legend Double Dagger -2.0 -2.1 99 20 32 2.4 101.23   -9 Snow
19:00 Legend Double Dagger -1.5 -1.5 100 19 32 2.4 101.11   -9 Snow
20:00 Legend Double Dagger -1.2 -1.2 100 19 30 1.6 101.03   -8 Snow
21:00 Legend Double Dagger -0.8 -0.8 100 20 34 2.4 100.90   -8 Snow
22:00 Legend Double Dagger -0.8 -0.8 100 20 39 3.2 100.77   -8 Snow
23:00 Legend Double Dagger -0.9 -0.9 100 20 34 16.1 100.71   -8 Snow

Notes on Data Quality.

Legend

  • E = Estimated
  • M = Missing
  • NA = Not Available
  • ‡ = Partner data that is not subject to review by the National Climate Archives
Date modified: